This is the latest recevied weather packets stored in our database for station/object IR3AS. If no packets are shown the sender has not sent any weather packets the latest 10 day(s).
| Time | Temp. | Humidity | Pressure | Rain* | Wind** | Luminosity | Snow |
|---|---|---|---|---|---|---|---|
| 1777217176 | 13.89° C | 44% | 862.8 hPa | 0 mm | - | - | - |
| 1777216876 | 13.89° C | 43% | 862.9 hPa | 0 mm | - | - | - |
| 1777216576 | 13.89° C | 41% | 862.8 hPa | 0 mm | - | - | - |
| 1777216276 | 15° C | 40% | 862.9 hPa | 0 mm | - | - | - |
| 1777216012 | 15° C | 40% | 862.7 hPa | 0 mm | - | - | - |
| 1777215976 | 15° C | 40% | 862.7 hPa | 0 mm | - | - | - |
| 1777215676 | 15° C | 40% | 862.7 hPa | 0 mm | - | - | - |
| 1777215376 | 15.56° C | 40% | 862.8 hPa | 0 mm | - | - | - |
| 1777215076 | 15.56° C | 38% | 862.6 hPa | 0 mm | - | - | - |
| 1777214776 | 16.11° C | 37% | 862.7 hPa | 0 mm | - | - | - |
| 1777214476 | 17.78° C | 35% | 862.7 hPa | 0 mm | - | - | - |
| 1777214176 | 18.33° C | 35% | 862.6 hPa | 0 mm | - | - | - |
| 1777213876 | 18.89° C | 35% | 862.5 hPa | 0 mm | - | - | - |
| 1777213577 | 19.44° C | 35% | 862.2 hPa | 0 mm | - | - | - |
| 1777213276 | 18.89° C | 35% | 862.3 hPa | 0 mm | - | - | - |
| 1777212976 | 18.33° C | 36% | 862.3 hPa | 0 mm | - | - | - |
| 1777212676 | 17.78° C | 35% | 862.1 hPa | 0 mm | - | - | - |
| 1777212377 | 17.78° C | 36% | 862 hPa | 0 mm | - | - | - |
| 1777212076 | 17.78° C | 36% | 862 hPa | 0 mm | - | - | - |
| 1777211777 | 16.67° C | 36% | 862 hPa | 0 mm | - | - | - |
| 1777211477 | 16.11° C | 36% | 862.1 hPa | 0 mm | - | - | - |
| 1777211177 | 16.11° C | 36% | 862.1 hPa | 0 mm | - | - | - |
| 1777210877 | 15.56° C | 35% | 862.1 hPa | 0 mm | - | - | - |
| 1777210577 | 15.56° C | 35% | 862.4 hPa | 0 mm | - | - | - |
| 1777210277 | 15° C | 34% | 862.5 hPa | 0 mm | - | - | - |
* Rain latest hour (hover to see other rain measurements)
** Current wind speed in m/s (hover to see current wind gust speed)